{"data":{"norad_id":50820,"intl_designator":"2022-001T","name":"STARLINK-3339","alt_names":[],"object_type":"PAYLOAD","status":"ACTIVE","operator":null,"country":"US","launch_date":"2022-01-06","launch_site_code":"AFETR","launch_vehicle":null,"mission":null,"orbit_class":"UNKNOWN","rcs_meters":null,"size_class":null,"mass_kg":null,"dimensions":null,"purposes":["comms"],"wikipedia_slug":null,"has_3d_model":false,"image_url":null,"decayed_at":null,"tle_current":{"epoch":"2026-09-20T00:27:32.520096Z","epoch_age_seconds":89855,"freshness":"FRESH","line1":"1 50820U 22001T   26263.01912639  .00007463  00000+0  25224-3 0  9997","line2":"2 50820  53.1606   6.1371 0001108  94.2786 265.8342 15.31672012259882","mean_motion":15.31672012,"eccentricity":0.0001108,"inclination_deg":53.1606,"raan_deg":6.1371,"arg_perigee_deg":94.2786,"mean_anomaly_deg":265.8342,"bstar":0.00025224,"rev_number":25988,"period_min":94.014905849177,"perigee_km":470.06456245236,"apogee_km":471.58229208304,"semimajor_km":6848.9604272677,"source":"CELESTRAK","updated_at":"2026-09-20T09:00:39.578030Z"}}}